Vancouver, British Columbia

1:19 PM PDT on July 28, 2017 (GMT -0700)
Vancouver International Airport

Weather History for CYVR - August, 2013

Change the Weather History Date:

Sunday, August 25, 2013

  Actual Average Record
Temperature  
Mean Temperature 64 °F -  
Max Temperature 72 °F 66 °F 78 °F (2016)
Min Temperature 55 °F 51 °F 53 °F (2008)
Degree Days  
Heating Degree Days 2    
Growing Degree Days 14 (Base 50)    
Moisture  
Dew Point 54 °F    
Average Humidity 71    
Maximum Humidity 88    
Minimum Humidity 44    
Precipitation  
Precipitation 0.00 in 0.08 in - ()
Sea Level Pressure  
Sea Level Pressure 29.91 in    
Wind  
Wind Speed 5 mph ()    
Max Wind Speed 10 mph    
Max Gust Speed -    
Visibility 19.9 miles    
Events      
Averages and records for this station are not official NWS values.
T = Trace of Precipitation, MM = Missing Value Source: Averaged Metar Reports

Daily Weather History Graph

Daily Weather History Graph

Search for Another Location

Airport or City:

Trip Planner

Search our weather history database for the weather conditions in past years. The results will help you decide how hot, cold, wet, or windy it might be!

Date:

Astronomy

Aug. 25, 2013 Rise Set
Actual Time 6:19 AM PDT 8:08 PM PDT
Civil Twilight 5:45 AM PDT 8:42 PM PDT
Nautical Twilight 5:03 AM PDT 9:23 PM PDT
Astronomical Twilight 4:17 AM PDT 10:09 PM PDT
Moon 10:09 PM PDT (8/25) 11:59 AM PDT (8/25)
Length of Visible Light 14h 56m
Length of Day
13h 49m
Waning Gibbous, 75% of the Moon is Illuminated
Aug 25
Waning Gibbous
Aug 28
Last Quarter
Sep 5
New
Sep 12
First Quarter
Sep 19
Full

Hourly Weather History & Observations

Time (PDT) Temp. Dew Point Humidity Pressure Visibility Wind Dir Wind Speed Gust Speed Precip Events Conditions
12:00 AM 59.0 °F 53.6 °F 82% 29.92 in 20.0 mi ESE 4.6 mph - N/A   Mostly Cloudy
1:00 AM 59.0 °F 55.4 °F 88% 29.92 in 20.0 mi Variable 2.3 mph - N/A   Mostly Cloudy
2:00 AM 59.0 °F 53.6 °F 82% 29.93 in 20.0 mi East 5.8 mph - N/A   Mostly Cloudy
3:00 AM 59.0 °F 53.6 °F 82% 29.93 in 20.0 mi East 4.6 mph - N/A   Scattered Clouds
4:00 AM 57.2 °F 53.6 °F 88% 29.93 in 20.0 mi East 5.8 mph - N/A   Mostly Cloudy
5:00 AM 58 °F 53 °F 79% 29.94 in 19 mi East 4.6 mph - -   Scattered Clouds
5:00 AM 57.2 °F 53.6 °F 88% 29.94 in 20.0 mi East 4.6 mph - N/A   Mostly Cloudy
6:00 AM 55.4 °F 51.8 °F 88% 29.94 in 20.0 mi ESE 5.8 mph - N/A   Scattered Clouds
7:00 AM 57.2 °F 53.6 °F 88% 29.95 in 30.0 mi East 4.6 mph - N/A   Scattered Clouds
8:00 AM 60.8 °F 55.4 °F 82% 29.96 in 30.0 mi ESE 5.8 mph - N/A   Scattered Clouds
9:00 AM 62.6 °F 51.8 °F 68% 29.95 in 30.0 mi SE 4.6 mph - N/A   Partly Cloudy
10:00 AM 64.4 °F 53.6 °F 68% 29.96 in 30.0 mi SSW 3.5 mph - N/A   Partly Cloudy
11:00 AM 65 °F 57 °F 68% 29.95 in 28 mi WSW 8.1 mph - -   Scattered Clouds
11:00 AM 64.4 °F 57.2 °F 77% 29.95 in 30.0 mi WSW 8.1 mph - N/A   Partly Cloudy
12:00 PM 66.2 °F 57.2 °F 73% 29.94 in 30.0 mi WSW 10.4 mph - N/A   Partly Cloudy
1:00 PM 68.0 °F 57.2 °F 68% 29.92 in 30.0 mi West 9.2 mph - N/A   Partly Cloudy
2:00 PM 68.0 °F 57.2 °F 68% 29.91 in 30.0 mi WSW 9.2 mph - N/A   Scattered Clouds
3:00 PM 69.8 °F 55.4 °F 60% 29.90 in 30.0 mi West 8.1 mph - N/A   Scattered Clouds
4:00 PM 69.8 °F 55.4 °F 60% 29.88 in 30.0 mi West 6.9 mph - N/A   Scattered Clouds
5:00 PM 72 °F 55 °F 44% 29.87 in 28 mi WNW 5.8 mph - -   Partly Cloudy
5:00 PM 71.6 °F 55.4 °F 57% 29.87 in 30.0 mi WNW 5.8 mph - N/A   Scattered Clouds
6:00 PM 71.6 °F 51.8 °F 50% 29.86 in 30.0 mi WSW 9.2 mph - N/A   Mostly Cloudy
7:00 PM 68.0 °F 51.8 °F 56% 29.86 in 30.0 mi WSW 3.5 mph - N/A   Mostly Cloudy
8:00 PM 66.2 °F 55.4 °F 68% 29.86 in 30.0 mi SW 3.5 mph - N/A   Mostly Cloudy
9:00 PM 66.2 °F 51.8 °F 60% 29.87 in 20.0 mi SSE 5.8 mph - N/A   Mostly Cloudy
10:00 PM 64.4 °F 53.6 °F 68% 29.87 in 20.0 mi East 6.9 mph - N/A   Mostly Cloudy
11:00 PM 64.4 °F 51.8 °F 64% 29.87 in 20.0 mi East 10.4 mph - N/A   Mostly Cloudy